User: anonymous   Login
Location: Ceske Budejovice
(48.9830°N, 14.4670°E)
Time: 15:17:30
(UTC+02:00)
Language:

BEESAT 2 - Orbit

View from above orbital plane
View from above orbital plane
View from above satellite
View from above satellite

Ground track
Ground track

The orbit data is extracted from the following two-line orbital elements,

1 39136U 13015G   19198.78816418 +.00000372 +00000-0 +28715-4 0  9992
2 39136 064.8712 308.7841 0020654 299.1513 060.7545 15.16934500344192
Epoch (UTC): 17 July 2019 18:54:57
Eccentricity: 0.0020654
inclination: 64.8712°
perigee height: 501 km
apogee height: 529 km
right ascension of ascending node: 308.7841°
argument of perigee: 299.1513°
revolutions per day: 15.16934500
mean anomaly at epoch: 60.7545°
orbit number at epoch: 34419

The dashed part of the orbit path shows where the satellite is in the earth's shadow,  

DLR